Orangeburg, SC

1:12 AM EDT on April 22, 2018 (GMT -0400)
Orangeburg Municipal

Weather History for KOGB - July, 2012

Change the Weather History Date:

Friday, July 20, 2012

  Actual Average Record
Temperature  
Mean Temperature 84 °F 82 °F  
Max Temperature 93 °F 93 °F 103 °F (1986)
Min Temperature 74 °F 72 °F 61 °F (1987)
Degree Days  
Heating Degree Days 0 0  
Month to date heating degree days 0 0  
Since 1 June heating degree days 0 1  
Since 1 July heating degree days 0 0  
Cooling Degree Days 19 17  
Month to date cooling degree days 360 333  
Year to date cooling degree days 1241 1034  
Since 1 June cooling degree days 693 731  
Growing Degree Days 32 (Base 50)    
Moisture  
Dew Point 71 °F    
Average Humidity 72    
Maximum Humidity 93    
Minimum Humidity 49    
Precipitation  
Precipitation 0.00 in 0.16 in 1.45 in (1982)
Month to date precipitation 4.51 3.59  
Year to date precipitation 24.59 26.33  
Sea Level Pressure  
Sea Level Pressure 30.00 in    
Wind  
Wind Speed 9 mph (SW)    
Max Wind Speed 18 mph    
Max Gust Speed 24 mph    
Visibility 10 miles    
Events      
T = Trace of Precipitation, MM = Missing Value Source: NWS Daily Summary

Daily Weather History Graph

Daily Weather History Graph

Search for Another Location

Airport or City:

Astronomy

Jul. 20, 2012 Rise Set
Actual Time 6:28 AM EDT 8:31 PM EDT
Civil Twilight 6:00 AM EDT 8:59 PM EDT
Nautical Twilight 5:26 AM EDT 9:33 PM EDT
Astronomical Twilight 4:49 AM EDT 10:09 PM EDT
Moon 7:56 AM EDT (7/20) 9:19 PM EDT (7/20)
Length of Visible Light 14h 58m
Length of Day
14h 03m
New Moon, 2% of the Moon is Illuminated
Jul 20
New Moon
Jul 26
First Quarter
Aug 1
Full
Aug 9
Last Quarter
Aug 17
New

Hourly Weather History & Observations

Time (EDT) Temp. Heat Index Dew Point Humidity Pressure Visibility Wind Dir Wind Speed Gust Speed Precip Events Conditions
12:53 AM 77.0 °F - 72.0 °F 84% 30.01 in 10.0 mi South 5.8 mph - N/A   Clear
1:53 AM 75.9 °F - 72.0 °F 87% 30.02 in 10.0 mi SSW 4.6 mph - N/A   Clear
2:53 AM 75.0 °F - 72.0 °F 90% 30.00 in 10.0 mi SSW 3.5 mph - N/A   Clear
3:53 AM 75.0 °F - 72.0 °F 90% 30.00 in 10.0 mi SW 4.6 mph - N/A   Clear
4:53 AM 73.9 °F - 72.0 °F 93% 29.99 in 10.0 mi SW 5.8 mph - N/A   Clear
5:53 AM 73.9 °F - 72.0 °F 93% 30.01 in 10.0 mi SW 5.8 mph - N/A   Clear
6:53 AM 75.0 °F - 72.0 °F 90% 30.01 in 9.0 mi SW 8.1 mph - N/A   Clear
7:22 AM 75.2 °F - 71.6 °F 89% 30.02 in 10.0 mi WSW 8.1 mph - N/A   Mostly Cloudy
7:53 AM 75.9 °F - 72.0 °F 87% 30.02 in 10.0 mi WSW 6.9 mph - N/A   Overcast
8:53 AM 79.0 °F - 72.0 °F 79% 30.03 in 10.0 mi SW 10.4 mph - N/A   Mostly Cloudy
9:08 AM 80.6 °F 85.4 °F 73.4 °F 79% 30.03 in 10.0 mi SW 9.2 mph 17.3 mph N/A   Scattered Clouds
9:53 AM 82.9 °F 88.8 °F 73.0 °F 72% 30.03 in 10.0 mi SW 10.4 mph - N/A   Clear
10:53 AM 86.0 °F 92.2 °F 72.0 °F 63% 30.03 in 10.0 mi SW 10.4 mph - N/A   Clear
11:53 AM 88.0 °F 94.7 °F 72.0 °F 59% 30.02 in 10.0 mi WSW 13.8 mph - N/A   Clear
12:53 PM 89.1 °F 94.1 °F 70.0 °F 53% 30.02 in 10.0 mi SW 15.0 mph 21.9 mph N/A   Partly Cloudy
1:53 PM 91.0 °F 96.6 °F 70.0 °F 50% 30.00 in 10.0 mi SW 12.7 mph - N/A   Scattered Clouds
2:53 PM 90.0 °F 95.4 °F 70.0 °F 52% 29.97 in 10.0 mi SSW 12.7 mph 18.4 mph N/A   Scattered Clouds
3:53 PM 91.0 °F 96.6 °F 70.0 °F 50% 29.95 in 10.0 mi SW 16.1 mph 21.9 mph N/A   Partly Cloudy
4:53 PM 91.0 °F 96.6 °F 70.0 °F 50% 29.94 in 10.0 mi SW 12.7 mph 20.7 mph N/A   Partly Cloudy
5:53 PM 91.0 °F 97.6 °F 71.1 °F 52% 29.93 in 10.0 mi SSW 10.4 mph - N/A   Clear
6:53 PM 89.1 °F 95.0 °F 71.1 °F 55% 29.94 in 10.0 mi SW 10.4 mph - N/A   Mostly Cloudy
7:53 PM 84.9 °F 89.4 °F 70.0 °F 61% 29.95 in 10.0 mi South 10.4 mph - N/A   Clear
9:53 PM 80.1 °F 83.2 °F 70.0 °F 71% 29.99 in 10.0 mi SSW 5.8 mph - N/A   Clear
10:53 PM 79.0 °F - 71.1 °F 77% 30.00 in 10.0 mi SSW 5.8 mph - N/A   Clear
11:53 PM 78.1 °F - 72.0 °F 81% 30.01 in 10.0 mi SW 6.9 mph - N/A   Clear